Weather in Ruzhyn

Ukraine / Zhytomyr Region     49°43′23″N   29°13′16″E
temp.,
°C
wind,
m/s
gust,
m/s
humid.,
%
clouds,
%
prec.,
mm/h
press.,
hPa
HPBL,
m
25 february, thu
thu2523:00+2wnw34100100 0.0 103353
02:00+2wnw33100100 0.0 103243
05:00+3w34100100 0.0 103142
08:00+3w44100100 0.1 103178
11:00+4w48100100 0.0 1031139
14:00+4w59100100 0.0 1030171
17:00+3w49100100 0.0 1029194
20:00+3w4799100 0.0 1029141
26 february, fri
fri2623:00+2w349997 0.0 102982
02:00+2wsw349992 0.0 102877
05:00+2wsw479894 0.0 1026142
08:00+2wsw499054 0.0 1025155
11:00+5w510900 0.0 1023285
14:00+8w510890 0.0 1022330
17:00+6w410920 0.0 1020176
20:00+4wnw4109622 0.0 1021181
27 february, sat
sat2723:00+5w499499 0.0 1019171
02:00+4wnw4119099 0.5 1019307
05:00+3wnw61392100 0.0 1018516
08:00+3wnw51290100 0.1 1018876
11:00+3wnw7118194 0.1 1017925
14:00+3wnw7119197 0.1 1017793
17:00+3nw6128089 0.4 1017774
20:00+2nnw7129192 0.6 1019789
28 february, sun
sun2823:00+1nnw6119697 0.3 1020696
02:00+1nnw599799 0.4 1022563
05:000nnw51092100 0.2 1023587
08:000nnw599394 0.4 1025648
11:00+1nnw697598 0.2 10251082
14:00+2nnw797498 0.4 10261042
17:00+1nnw5984100 0.2 1026822
20:000nnw4889100 0.3 1028603
1 march, mon
mon123:00−1nnw3788100 0.1 1029371
02:00−1nnw378899 0.1 1030319
05:00−1nnw258991 0.1 1031281
08:00−1n468783 0.1 1033408
11:00+1n466984 0.0 1034889
14:00+3nnw456066 0.0 1034904
17:00+2nw36710 0.0 1034190
20:00+1nw488333 0.0 1035410